Tracking 33198 objects as of 14-Feb-2026
HD Live streaming from Space Station
objects crossing your sky now

ICEYE-X44

Track ICEYE-X44 now!
10-day predictions


NORAD ID: 62707
Int'l Code: 2025-009DC
Perigee: 587.4 km
Apogee: 590.4 km
Inclination: 97.7 °
Period: 96.3 minutes
Semi major axis: 6959 km
RCS: Unknown
Launch date: January 14, 2025
Source: (FIN)
Launch site: AIR FORCE WESTERN TEST RANGE (AFWTR)
Your satellite tracking list
Your tracking list is empty




NASA's NSSDC Master Catalog

Two Line Element Set (TLE):
1 62707U 25009DC  26044.91708071  .00003320  00000-0  30723-3 0  9993
2 62707  97.7155 126.0304 0002116 135.8531 224.2859 14.95203712 81511
Source of the keplerian elements: AFSPC